Вернуться в каталог

DEB FREGAT

АктивенSSO
NORAD 42833·DEBRIS·🇷🇺 Russia
Это название спутника еще не подтверждено официальными источниками.

Запущен Jul 14, 2017 с Baikonur Cosmodrome

Loading…

Ближайшие Пролёты (ближайшие 24 часа)

TLE

СвежийSource: Space-Track

Эпоха: Sep 13, 2026, 22:55 UTC

1 42833U 17042J   26256.95524136  .00002859  00000-0  18092-3 0  9997
2 42833  97.4459  57.1991 0007069 141.6208 218.5525 15.09750644500404

Отслеживайте DEB FREGAT в реальном времени с AllMySat

Download on the App Store